Погода в Джикимде

Погода в Джикимде : погода сейчас, прогноз погоды и архив. Всё, что Вы хотите узнать о погоде в Джикимде!

Поиск расширенной информации на нашем сайте:

Другие новости

Новости СМИ2

Главная страница сайта

Новости сайта

02.10.2013

Напоминаем, что на нашем новом сайте вы можете получить высокодетализированные прогнозы погоды по пунктам России, СНГ и мира (включающие важные для авиации метеовеличины, такие как направление и скорость ветра, видимость, явления погоды, количество и форма облачности, нижняя и верхняя граница облачности), а также ознакомиться с разнообразными материалами по авиационной метеорологии и подборкой полезных ссылок на эту тему.

Сайт Метеоцентр.Азия посвящён разработке технологий оптимизации авиаметеорологического обслуживания, включая проектирование и перспективное создание нескольких автоматизированных авиаметеорологических систем:
- система выпуска высокодетальных прогностических карт явлений погоды для нижнего воздушного пространства по России и ближнему зарубежью;
- система верификации прогнозов TAF (выпускаемых синоптиками официальных АМСГ РФ и ближнего зарубежья) и AUTOTAF (выпускаемых сайтом Метеоцентр.Азия) - выявление ошибок, онлайн-сопоставление с фактической погодой METAR, автоматическое внесение коррективов в прогнозы при резком отклонении фактической погоды от прогноза, подсчёт оправдываемости прогнозов по элементам и в целом;
- система обработки, анализа и отображения авиаметеорологической информации для применения провайдерами метеорологической информации.


Погода в Джикимде - сегодня

Время (UTC), дата Ветер
(°,м/с) 
Видим.   Явления Облачность Т
(°С)
Тd
(°С)
f(%) Тe
(°С)
Pmin
(гПа)
dP
(гПа)
Po
(мм)
O2
(г/м3)
Тmin Tmax R s Состояние
почвы
15 25.05.17 тихо ()   20000 м    6/3 600 м верхняя 
[Sc|Ci fib]
+6.4 +5.7 95 +6  1004.9  0.5  738  289           
18 25.05.17 тихо ()   20000 м    8/4 600 м верхняя 
[Sc|Ci fib]
+1.2 +1.2 100 +1  1005.6  0.2  738  296           
21 25.05.17 тихо ()   20000 м    8/8 600 м 
[Sc]
+5 +4.5 97 +5  1003.3  -1.8  737  291           
00 26.05.17 тихо ()   0500 м  туман  ?/?  
+7.2 +6.8 97 +7  1001  -2  735  287  +1.2        влажная 
03 26.05.17 040 (СВ) 20000 м  {туман}  9/6 600 м верхняя 
[Cu Sc|Ci sp]
+17.2 +8.7 57 +18  999.7  -0.6  735  277           
06 26.05.17 040 (СВ) 20000 м  слаб. ливневой дождь{туман}  10/10 600 м кучево-дожд. 
[Cb cap]
+15.7 +11.6 77 +21  1002.2  2.3  736  278           
09 26.05.17 тихо ()   20000 м  {ливн. осадки}  10/0 средняя 
[Ac und]
+14.6 +12.6 88 +20  1002  -0.2  736  279           
12 26.05.17 тихо () {11}  20000 м  {ливн. осадки}  8/0 средняя 
[Ac cast]
+10.7 +9.1 90 +11  1004.5  2.2  738  284    +19.9     
15 26.05.17 тихо ()   20000 м    8/0 средняя, верхняя 
[Ac cast|Cs]
+6.1 +5.9 99 +6  1006.5  1.5  739  290           
18 26.05.17 тихо ()   20000 м    8/0 верхняя 
[Cs]
+2 +2 100 +2  1008.4  1.6  740  296           
21 26.05.17 тихо ()   0050 м  туман  ?/?  
+4.7 +4.5 99 +5  1007.5  -0.8  740  292           
00 27.05.17 тихо ()   0500 м  туман  ?/?  
+5.2 +4.7 97 +5  1007.3  740  292  +2        влажная 
03 27.05.17 180 (Ю) 20000 м  {туман}  5/1 600 м верхняя 
[Cu hum|Cs]
+14 +5.8 58 +15  1005.1  -1.6  738  282           
06 27.05.17 180 (Ю) 20000 м  {туман}  4/4 600 м 
[Cu hum]
+20.4 +2.7 31 +20  1001.7  -2.9  736  276           
09 27.05.17 170 (Ю) 20000 м    9/8 600 м кучево-дожд., средняя 
[Cb cap|Ac trans]
+14.3 +6.8 61 +15  1003.3  1.1  737  281           
12 27.05.17 180 (Ю) 20000 м    10/9 600 м кучево-дожд., средняя 
[Cb cap|Ac trans]
+11.3 +7.8 79 +12  1004.3  0.9  738  284    +22       
15 27.05.17 010 (С) 1{11}  20000 м    10/10 600 м кучево-дожд. 
[Cb cap]
+12.5 +6.4 66 +14  1004.8  0.5  738  283           
18 27.05.17 тихо ()   20000 м    10/10 600 м кучево-дожд. 
[Cb cap]
+9.3 +4.8 73 +9  1005.8  0.8  739  287           
21 27.05.17 тихо ()   20000 м  {ливн. осадки}  10/10 600 м кучево-дожд. 
[Cb cap]
+6.2 -5.3 43 +6  1008  1.9  740  292           
09 28.05.17 320 (СЗ) 1{13}  20000 м    10/5 600 м кучево-дожд., средняя 
[Cb cap|As op]
+9.3 +0.1 53 +10  1006.7  -1.2  739  288           
12 28.05.17 330 (СЗ) 1{10}  20000 м    10/3 600 м кучево-дожд., средняя 
[Cb cap|As op]
+8.6 +4 73 +10  1006.9  0.2  739  288    +9.3  0.0     
15 28.05.17 290 (З) 20000 м  слаб. ливневой дождь  10/10 600 м кучево-дожд. 
[Cb cap]
+4.2 +3.9 98 +5  1006.4  -0.7  738  292           
18 28.05.17 280 (З) 20000 м  слаб. ливневой дождь  10/10 600 м кучево-дожд. 
[Cb cap]
+5.6 +4.2 91 +6  1005.9  -0.5  738  291           
18 29.05.17 090 (В) 20000 м  слаб. дождь  10/0 средняя 
[As op]
+6.1 +3.5 83 +7  1007.4  0.1  740  291           
21 29.05.17 070 (В) 20000 м  слаб. дождь  10/0 средняя 
[As op]
+5.8 +2.9 82 +7  1005.6  -1.8  738  291           
Время (UTC), дата Ветер
(°,м/с) 
Видим.   Явления Облачность Т
(°С)
Тd
(°С)
f(%) Тe
(°С)
Pmin
(гПа)
dP
(гПа)
Po
(мм)
O2
(г/м3)
Тmin Tmax R s Состояние
почвы

Для получения пояснительной информации подведите курсор к названию столбца.

ПОГОДА в Джикимде - архив

Всё, что Вы хотите узнать о погоде в Джикимде - удобно и подробно!

Выберите нужную дату (начиная с 1 января 2015* года) и нажмите кнопку "Найти".
Будут отображены архивные сводки погоды по пункту Джикимда, начиная с указанной даты.


Отображать данные в формате CSV (для использования в таблицах Excel)


Внимание! Наш архив погоды предназначен исключительно для личного некоммерческого использования в познавательных целях. Если Вам необходимы официальные справки о состоянии погоды (для производственных, юридических, коммерческих и т.п. целей), обращайтесь в органы Росгидромета.

*Примечание: данная дата относится к архиву по метеостанциям СССР (Россия, СНГ, Балтия).
Архив по метеостанциям Зарубежной Европы и Азии (кроме Китая) хранится 10 дней, по другим регионам земного шара (Китай, Африка, Америка, Австралия, Океания) - 1 день.

Джикимда - район местоположения метеостанции


Название, широта, долгота, высота метеостанции:
Джикимда 59°ш. 121.8°д. 170 м над ур. моря [Российская Федерация]

Дополнительная информация

В oтличие oт бoльшинства пoгoдных сайтoв мы публикуем пoдрoбную метеoинфoрмацию в детальнoм прoфессиoнальнoм фoрмате.

Характеристики температуры и влажнoсти вoздуха измеряются на высoте 2 м в тени вдали oт зданий и деревьев.
Скoрoсть ветра измеряется на высoте 10 м (на урoвне рoста челoвека скoрoсть ветра ниже в 1.5-2 раза). Если метеoстанция нахoдится в гoрoде или в лесу, тo скoрoсть ветра занижена на 2-4 м/с пo сравнению с oткрытым местoм. Скoрoсть ветра над акватoриями крупных рек и oзёр, а также на вершинах хoлмoв на 2-5 м/с выше, чем в oбычных услoвиях.
Атмoсфернoе давление в разных тoчках местнoсти мoжет значительнo oтличаться oт давления на метеoстанции, в зависимoсти oт услoвий рельефа (при пoдъёме на 10 м давление пoнижается примернo на 1 мм рт.ст.).